Location: Altamira
(10.5079°N, 66.8544°W)
Time: 01:52:23
(UTC+00:00)

CORIOLIS - Pass Details

Date: 11 July 2022
Orbit: 819 x 837 km, 98.7° (Epoch: 17 August)

Event Time Altitude Azimuth Distance (km) Brightness Sun altitude
Rises 23:25:50 0° 202° (SSW) 3,344 7.3 -8.0°
Reaches altitude 10° 23:29:07 10° 224° (SW) 2,409 6.8 -8.8°
Maximum altitude 23:32:14 16° 260° (W) 2,029 7.0 -9.5°
Drops below altitude 10° 23:35:21 10° 296° (WNW) 2,406 8.2 -10.2°
Sets 23:38:39 0° 318° (NW) 3,338 8.7 -10.9°
